Zhongzi 02 zu 02 xing

operational
NORAD ID: 49019 Int'l Des: 2021-064 Owner: NINGX/CASC Country: CN
LEOCIRCULAR

关于 Zhongzi 02 zu 02 xing

正在加载描述...

实时位置

正在加载3D地球...

即将过境

高度历史

Altitude vs Time

uPlot chart will show altitude changes over time

两行轨道根数

1 49019U 21064B 26062.36421892 -.00000187 00000-0 -31811-4 0 9993
2 49019 45.0045 345.3986 0005884 87.6690 272.4821 14.08531888239323
Epoch: Mar 3, 2026 • Age: 21 hours

当前状态

高度 862.2 km
速度 7.43 km/s
星下点 29.52°N, 7.61°E
发射日期 Jul 9, 2021
运行时间 4.6 years
类型 other

技术详情

分类 Payload
质量 100.00 kg
干质量 100.00 kg
总质量 100.00 kg
长度 0.50 m
直径 0.20 m
跨度 1.00 m
形状 Box + 2 pan
制造商 DFHZ
平台类型 NX-1
阶段状态 In Orbit
所有者/国家 NINGX/CASC/CN

大型星座

Loading constellations...